TAM3173 SBRJ-SBSP

Flight info

Callsign TAM3173
Flight time 0h 47m
Altitude 260
Route NAXOP UZ45 IBDAL
Aircraft A320/M-SDE3FGHIRWY/LB1

Departure

Time 2026-05-04 13:05
Airport Santos Dumont Airport (SBRJ)

Arrival

Time 2026-05-04 13:53
Airport Congonhas–Deputado Freitas Nobre Airport (SBSP)
Time Latitude Longitude Altitude Speed Heading
2026-05-04 12:53 -22.91319 -43.16577 22 ft 0 kts 268°
2026-05-04 12:59 -22.91318 -43.16565 22 ft 3 kts 266°
2026-05-04 12:59 -22.91316 -43.16543 22 ft 3 kts 257°
2026-05-04 12:59 -22.91310 -43.16523 24 ft 3 kts 237°
2026-05-04 13:00 -22.91299 -43.16509 24 ft 2 kts 189°
2026-05-04 13:00 -22.91293 -43.16508 23 ft 0 kts 176°
2026-05-04 13:02 -22.91316 -43.16506 22 ft 5 kts 176°
2026-05-04 13:02 -22.91351 -43.16505 23 ft 6 kts 178°
2026-05-04 13:02 -22.91415 -43.16488 23 ft 10 kts 145°
2026-05-04 13:03 -22.91465 -43.16438 22 ft 9 kts 136°
2026-05-04 13:03 -22.91511 -43.16391 21 ft 9 kts 137°
2026-05-04 13:03 -22.91562 -43.16338 20 ft 11 kts 136°
2026-05-04 13:03 -22.91621 -43.16280 20 ft 11 kts 141°
2026-05-04 13:04 -22.91628 -43.16247 20 ft 0 kts 358°
2026-05-04 13:04 -22.91612 -43.16247 20 ft 22 kts 358°
2026-05-04 13:04 -22.91143 -43.16277 23 ft 110 kts 356°
2026-05-04 13:05 -22.90181 -43.16344 233 ft 156 kts 357°
2026-05-04 13:05 -22.89100 -43.16177 969 ft 161 kts 32°
2026-05-04 13:05 -22.88380 -43.15324 1721 ft 151 kts 69°
2026-05-04 13:05 -22.88236 -43.14108 1984 ft 178 kts 85°
2026-05-04 13:06 -22.88447 -43.12723 2399 ft 197 kts 122°
2026-05-04 13:06 -22.89528 -43.11753 3207 ft 212 kts 159°
2026-05-04 13:06 -22.91036 -43.11547 3889 ft 228 kts 184°
2026-05-04 13:06 -22.92621 -43.12092 4273 ft 254 kts 210°
2026-05-04 13:07 -22.94204 -43.13117 4837 ft 273 kts 211°
2026-05-04 13:07 -22.95318 -43.13838 5363 ft 277 kts 212°
2026-05-04 13:08 -23.00716 -43.17898 8357 ft 279 kts 238°
2026-05-04 13:08 -23.01697 -43.19714 9225 ft 280 kts 242°
2026-05-04 13:08 -23.02662 -43.21563 10074 ft 282 kts 242°
2026-05-04 13:08 -23.03652 -43.23469 10477 ft 301 kts 242°
2026-05-04 13:09 -23.04717 -43.25520 10769 ft 320 kts 242°
2026-05-04 13:09 -23.05829 -43.27650 11367 ft 327 kts 241°
2026-05-04 13:09 -23.06960 -43.29814 12051 ft 332 kts 241°
2026-05-04 13:09 -23.08108 -43.32002 12741 ft 335 kts 241°
2026-05-04 13:10 -23.08878 -43.33466 13205 ft 338 kts 241°
2026-05-04 13:10 -23.10447 -43.36455 14121 ft 343 kts 241°
2026-05-04 13:10 -23.11230 -43.37947 14520 ft 344 kts 241°
2026-05-04 13:10 -23.12417 -43.40216 15159 ft 346 kts 241°
2026-05-04 13:11 -23.13606 -43.42497 15803 ft 348 kts 242°
2026-05-04 13:11 -23.14798 -43.44789 16461 ft 349 kts 242°
2026-05-04 13:11 -23.15995 -43.47090 17119 ft 350 kts 242°
2026-05-04 13:11 -23.17195 -43.49394 17766 ft 352 kts 242°
2026-05-04 13:12 -23.18403 -43.51712 18411 ft 353 kts 243°
2026-05-04 13:12 -23.19615 -43.54038 18964 ft 355 kts 243°
2026-05-04 13:12 -23.20835 -43.56378 19520 ft 357 kts 243°
2026-05-04 13:12 -23.22061 -43.58726 20085 ft 358 kts 243°
2026-05-04 13:13 -23.23293 -43.61091 20626 ft 360 kts 243°
2026-05-04 13:13 -23.24530 -43.63471 21187 ft 362 kts 243°
2026-05-04 13:13 -23.25770 -43.65861 21741 ft 364 kts 243°
2026-05-04 13:13 -23.27019 -43.68271 22296 ft 366 kts 243°
2026-05-04 13:14 -23.28272 -43.70690 22847 ft 369 kts 243°
2026-05-04 13:14 -23.29519 -43.73094 23375 ft 371 kts 243°
2026-05-04 13:14 -23.30790 -43.75547 23890 ft 373 kts 243°
2026-05-04 13:14 -23.32070 -43.78013 24327 ft 375 kts 243°
2026-05-04 13:15 -23.33355 -43.80481 24761 ft 376 kts 243°
2026-05-04 13:15 -23.34645 -43.82963 25204 ft 377 kts 243°
2026-05-04 13:15 -23.35936 -43.85454 25627 ft 378 kts 243°
2026-05-04 13:15 -23.37229 -43.87953 26044 ft 379 kts 243°
2026-05-04 13:16 -23.38522 -43.90457 26202 ft 379 kts 243°
2026-05-04 13:16 -23.39790 -43.92907 26242 ft 364 kts 243°
2026-05-04 13:16 -23.41019 -43.95283 26240 ft 358 kts 243°
2026-05-04 13:16 -23.42235 -43.97639 26244 ft 356 kts 243°
2026-05-04 13:17 -23.43446 -43.99986 26240 ft 355 kts 243°
2026-05-04 13:17 -23.44655 -44.02334 26239 ft 355 kts 243°
2026-05-04 13:17 -23.45860 -44.04677 26239 ft 355 kts 243°
2026-05-04 13:17 -23.47068 -44.07024 26238 ft 355 kts 243°
2026-05-04 13:18 -23.48276 -44.09367 26238 ft 355 kts 243°
2026-05-04 13:18 -23.49484 -44.11709 26242 ft 355 kts 243°
2026-05-04 13:18 -23.50692 -44.14057 26241 ft 355 kts 244°
2026-05-04 13:18 -23.51688 -44.16496 26241 ft 352 kts 253°
2026-05-04 13:19 -23.52311 -44.19072 26235 ft 351 kts 257°
2026-05-04 13:19 -23.52895 -44.21656 26235 ft 352 kts 257°
2026-05-04 13:19 -23.53486 -44.24244 26232 ft 352 kts 257°
2026-05-04 13:19 -23.54078 -44.26828 26233 ft 352 kts 257°
2026-05-04 13:20 -23.54671 -44.29417 26227 ft 352 kts 257°
2026-05-04 13:20 -23.55263 -44.32004 26227 ft 352 kts 256°
2026-05-04 13:20 -23.55857 -44.34589 26225 ft 352 kts 256°
2026-05-04 13:20 -23.56452 -44.37178 26223 ft 352 kts 256°
2026-05-04 13:21 -23.57043 -44.39764 26225 ft 352 kts 256°
2026-05-04 13:21 -23.57635 -44.42353 26223 ft 352 kts 256°
2026-05-04 13:21 -23.58226 -44.44943 26224 ft 352 kts 256°
2026-05-04 13:21 -23.58814 -44.47528 26220 ft 352 kts 257°
2026-05-04 13:22 -23.59402 -44.50118 26216 ft 352 kts 256°
2026-05-04 13:22 -23.59991 -44.52710 26218 ft 352 kts 256°
2026-05-04 13:22 -23.60581 -44.55299 26217 ft 352 kts 256°
2026-05-04 13:22 -23.61171 -44.57893 26215 ft 352 kts 256°
2026-05-04 13:23 -23.61760 -44.60482 26216 ft 352 kts 256°
2026-05-04 13:23 -23.62351 -44.63081 26215 ft 353 kts 256°
2026-05-04 13:23 -23.62939 -44.65672 26215 ft 353 kts 256°
2026-05-04 13:23 -23.63527 -44.68271 26215 ft 353 kts 256°
2026-05-04 13:24 -23.64113 -44.70871 26216 ft 353 kts 256°
2026-05-04 13:24 -23.64695 -44.73472 26214 ft 353 kts 256°
2026-05-04 13:24 -23.65277 -44.76069 26213 ft 353 kts 256°
2026-05-04 13:25 -23.66450 -44.81279 26215 ft 354 kts 256°
2026-05-04 13:25 -23.67038 -44.83882 26213 ft 354 kts 256°
2026-05-04 13:25 -23.67625 -44.86486 26214 ft 354 kts 256°
2026-05-04 13:25 -23.68205 -44.89057 26213 ft 354 kts 256°
2026-05-04 13:26 -23.68792 -44.91667 26213 ft 354 kts 256°
2026-05-04 13:26 -23.69378 -44.94270 26212 ft 354 kts 256°
2026-05-04 13:26 -23.69965 -44.96881 26213 ft 354 kts 256°
2026-05-04 13:26 -23.70550 -44.99487 26211 ft 354 kts 256°
2026-05-04 13:27 -23.71133 -45.02097 26213 ft 354 kts 256°
2026-05-04 13:27 -23.71714 -45.04704 26216 ft 354 kts 256°
2026-05-04 13:27 -23.72294 -45.07319 26213 ft 354 kts 256°
2026-05-04 13:27 -23.72873 -45.09931 26218 ft 354 kts 256°
2026-05-04 13:28 -23.73453 -45.12542 26216 ft 354 kts 256°
2026-05-04 13:28 -23.74037 -45.15157 26218 ft 354 kts 256°
2026-05-04 13:28 -23.74619 -45.17771 26215 ft 354 kts 256°
2026-05-04 13:28 -23.75203 -45.20385 26218 ft 354 kts 256°
2026-05-04 13:29 -23.75788 -45.22999 26216 ft 354 kts 256°
2026-05-04 13:29 -23.76369 -45.25612 26216 ft 354 kts 256°
2026-05-04 13:29 -23.76947 -45.28226 26210 ft 354 kts 256°
2026-05-04 13:29 -23.77521 -45.30838 26210 ft 354 kts 256°
2026-05-04 13:30 -23.78095 -45.33455 26213 ft 355 kts 256°
2026-05-04 13:30 -23.78672 -45.36074 26213 ft 355 kts 256°
2026-05-04 13:30 -23.79248 -45.38691 26213 ft 355 kts 256°
2026-05-04 13:30 -23.79736 -45.41329 26212 ft 356 kts 263°
2026-05-04 13:31 -23.79893 -45.44036 26232 ft 370 kts 265°
2026-05-04 13:31 -23.80039 -45.46875 26229 ft 377 kts 265°
2026-05-04 13:31 -23.80187 -45.49746 26227 ft 379 kts 265°
2026-05-04 13:31 -23.80335 -45.52620 26226 ft 379 kts 265°
2026-05-04 13:32 -23.80480 -45.55451 26033 ft 368 kts 265°
2026-05-04 13:32 -23.80621 -45.58223 25612 ft 364 kts 265°
2026-05-04 13:32 -23.80762 -45.60965 25141 ft 361 kts 265°
2026-05-04 13:32 -23.80901 -45.63693 24664 ft 359 kts 265°
2026-05-04 13:33 -23.81039 -45.66406 24197 ft 357 kts 265°
2026-05-04 13:33 -23.81175 -45.69101 23719 ft 355 kts 265°
2026-05-04 13:33 -23.81310 -45.71787 23180 ft 353 kts 265°
2026-05-04 13:33 -23.81447 -45.74456 22666 ft 351 kts 265°
2026-05-04 13:34 -23.81584 -45.77109 22167 ft 348 kts 265°
2026-05-04 13:34 -23.81715 -45.79725 21369 ft 344 kts 265°
2026-05-04 13:34 -23.81845 -45.82340 20879 ft 343 kts 265°
2026-05-04 13:34 -23.81971 -45.84920 20544 ft 337 kts 265°
2026-05-04 13:35 -23.82096 -45.87457 20218 ft 332 kts 265°
2026-05-04 13:35 -23.82339 -45.92413 19590 ft 322 kts 266°
2026-05-04 13:35 -23.82457 -45.94836 19237 ft 319 kts 266°
2026-05-04 13:36 -23.82572 -45.97243 18952 ft 315 kts 266°
2026-05-04 13:36 -23.82686 -45.99622 18660 ft 313 kts 266°
2026-05-04 13:36 -23.82802 -46.01994 18338 ft 312 kts 266°
2026-05-04 13:36 -23.82918 -46.04354 18023 ft 311 kts 266°
2026-05-04 13:37 -23.83033 -46.06708 17715 ft 310 kts 266°
2026-05-04 13:37 -23.83147 -46.09053 17414 ft 309 kts 266°
2026-05-04 13:37 -23.83258 -46.11386 17116 ft 308 kts 266°
2026-05-04 13:37 -23.83331 -46.12930 16919 ft 307 kts 266°
2026-05-04 13:38 -23.83480 -46.16030 16515 ft 305 kts 265°
2026-05-04 13:38 -23.83589 -46.18311 16223 ft 304 kts 266°
2026-05-04 13:38 -23.83700 -46.20642 15924 ft 303 kts 266°
2026-05-04 13:38 -23.83808 -46.22906 15631 ft 302 kts 265°
2026-05-04 13:39 -23.83919 -46.25191 15334 ft 301 kts 265°
2026-05-04 13:39 -23.84027 -46.27471 15041 ft 300 kts 265°
2026-05-04 13:39 -23.84135 -46.29742 14747 ft 299 kts 265°
2026-05-04 13:39 -23.84243 -46.32007 14450 ft 298 kts 265°
2026-05-04 13:40 -23.84349 -46.34268 14164 ft 297 kts 266°
2026-05-04 13:40 -23.84453 -46.36520 13862 ft 297 kts 265°
2026-05-04 13:40 -23.84557 -46.38764 13540 ft 296 kts 266°
2026-05-04 13:40 -23.84660 -46.41004 13268 ft 295 kts 266°
2026-05-04 13:41 -23.84763 -46.43246 12982 ft 295 kts 266°
2026-05-04 13:41 -23.84865 -46.45480 12696 ft 295 kts 266°
2026-05-04 13:41 -23.84968 -46.47713 12411 ft 294 kts 266°
2026-05-04 13:42 -23.85173 -46.52161 11841 ft 292 kts 266°
2026-05-04 13:42 -23.85275 -46.54374 11561 ft 291 kts 266°
2026-05-04 13:42 -23.85377 -46.56581 11323 ft 291 kts 266°
2026-05-04 13:42 -23.85474 -46.58788 11042 ft 290 kts 269°
2026-05-04 13:43 -23.85220 -46.60961 10713 ft 291 kts 286°
2026-05-04 13:43 -23.84317 -46.62956 10241 ft 295 kts 306°
2026-05-04 13:43 -23.82874 -46.64509 9966 ft 291 kts 323°
2026-05-04 13:43 -23.81174 -46.65707 9593 ft 290 kts 326°
2026-05-04 13:44 -23.79483 -46.66877 9295 ft 285 kts 326°
2026-05-04 13:44 -23.77967 -46.68224 8991 ft 279 kts 307°
2026-05-04 13:44 -23.77154 -46.70106 8691 ft 275 kts 280°
2026-05-04 13:44 -23.77237 -46.72170 8397 ft 275 kts 253°
2026-05-04 13:45 -23.78195 -46.73960 8094 ft 278 kts 227°
2026-05-04 13:45 -23.79829 -46.75085 7795 ft 283 kts 200°
2026-05-04 13:45 -23.81793 -46.75284 7505 ft 289 kts 173°
2026-05-04 13:45 -23.83685 -46.74564 7213 ft 292 kts 149°
2026-05-04 13:46 -23.85178 -46.73068 6915 ft 293 kts 124°
2026-05-04 13:46 -23.85975 -46.71076 6785 ft 293 kts 100°
2026-05-04 13:46 -23.85999 -46.68888 6655 ft 287 kts 75°
2026-05-04 13:46 -23.85301 -46.66886 6533 ft 278 kts 60°
2026-05-04 13:47 -23.84460 -46.65041 6401 ft 265 kts 60°
2026-05-04 13:47 -23.83656 -46.63281 6276 ft 253 kts 60°
2026-05-04 13:47 -23.82885 -46.61589 6158 ft 245 kts 60°
2026-05-04 13:47 -23.82133 -46.59942 6047 ft 241 kts 60°
2026-05-04 13:48 -23.81385 -46.58306 5981 ft 240 kts 60°
2026-05-04 13:48 -23.80629 -46.56682 5979 ft 239 kts 56°
2026-05-04 13:48 -23.79474 -46.55466 5986 ft 230 kts 20°
2026-05-04 13:48 -23.77933 -46.55253 5878 ft 224 kts 344°
2026-05-04 13:49 -23.76548 -46.55984 5648 ft 223 kts 327°
2026-05-04 13:49 -23.75258 -46.56905 5383 ft 221 kts 326°
2026-05-04 13:49 -23.73997 -46.57795 5104 ft 209 kts 327°
2026-05-04 13:49 -23.72801 -46.58626 4874 ft 197 kts 327°
2026-05-04 13:50 -23.71686 -46.59400 4594 ft 183 kts 328°
2026-05-04 13:50 -23.70660 -46.60110 4381 ft 165 kts 328°
2026-05-04 13:50 -23.69736 -46.60751 4159 ft 151 kts 328°
2026-05-04 13:50 -23.68870 -46.61351 3966 ft 145 kts 328°
2026-05-04 13:51 -23.68021 -46.61939 3782 ft 144 kts 328°
2026-05-04 13:51 -23.67170 -46.62528 3593 ft 145 kts 329°
2026-05-04 13:51 -23.66318 -46.63118 3388 ft 145 kts 330°
2026-05-04 13:51 -23.65473 -46.63699 3191 ft 143 kts 330°
2026-05-04 13:52 -23.63771 -46.64884 2762 ft 145 kts 331°
2026-05-04 13:52 -23.62929 -46.65462 2631 ft 132 kts 329°
2026-05-04 13:52 -23.62396 -46.65833 2611 ft 50 kts 328°
2026-05-04 13:53 -23.62195 -46.65980 2603 ft 16 kts 300°
2026-05-04 13:53 -23.62241 -46.66036 2603 ft 8 kts 182°
2026-05-04 13:53 -23.62282 -46.66020 2605 ft 5 kts 150°
2026-05-04 13:54 -23.62372 -46.65958 2607 ft 13 kts 145°
2026-05-04 13:54 -23.62428 -46.65918 2610 ft 8 kts 149°
2026-05-04 13:54 -23.62483 -46.65982 2610 ft 1 kts 237°
2026-05-04 13:55 -23.62484 -46.65983 2610 ft 0 kts 237°
2026-05-04 13:55 -23.62485 -46.65985 2610 ft 0 kts 237°